Tracking 19832 objects as of 26-Aug-2019
HD Live streaming from Space Station
objects crossing your sky now

ARIANE 42L+3 R/B

Track ARIANE 42L+3 R/B now!


NORAD ID: 23637
Int'l Code: 1995-040B
Perigee: 637.7 km
Apogee: 36,765.6 km
Inclination: 4.0 °
Period: 658.5 minutes
Semi major axis: 25072 km
RCS: 21.0891 m2 (large)
Launch date: August 3, 1995
Source: France (FR)
Launch site: FRENCH GUIANA (FRGUI)

Note: This is a ROCKET BODY
aabbcc
Your satellite tracking list
Your tracking list is empty




NASA's NSSDC Master Catalog

Two Line Element Set (TLE):
1 23637U 95040B   19238.08594700 -.00000253  00000-0 -95061-3 0  9991
2 23637   4.0179 158.7107 7204633  23.3448 237.7565  2.18676309192247
Source of the keplerian elements: AFSPC